Location: Aydie
(43.5695°N, 0.1043°W)
Time: 06:02:45
(UTC+00:00)

CORIOLIS - Pass Details

Date: 17 November 2025
Orbit: 815 x 836 km, 98.7° (Epoch: 04 December)

Event Time Altitude Azimuth Distance (km) Brightness Sun altitude
Rises 17:30:21 0° 170° (S) 3,348 7.4 -10.4°
Reaches altitude 10° 17:32:42 10° 172° (S) 2,416 6.7 -10.8°
Maximum altitude 17:38:02 72° 257° (WSW) 863 4.5 -11.8°
Drops below altitude 10° 17:43:24 10° 342° (NNW) 2,421 6.6 -12.7°
Sets 17:45:45 0° 345° (NNW) 3,355 7.3 -13.1°
